Location: Newark
(34.9471°N, 136.1778°E)
Time: 02:34:13
(UTC+00:00)

XW-2C - Pass Details

Date: 21 February 2020
Orbit: 509 x 527 km, 97.5° (Epoch: 04 April)

Event Time Altitude Azimuth Distance (km) Brightness Sun altitude
Rises 19:42:36 0° 39° (NE) 2,635 ? -23.6°
Reaches altitude 10° 19:46:15 10° 76° (ENE) 1,747 ? -22.9°
Maximum altitude 19:47:18 11° 93° (E) 1,684 ? -22.7°
Drops below altitude 10° 19:48:22 10° 109° (ESE) 1,746 ? -22.5°
Sets 19:52:00 0° 147° (SSE) 2,632 ? -21.7°
